Hourly Data Report for July 11, 2017

All times are specified in Local Standard Time (LST). Add 1 hour to adjust for Daylight Saving Time where and when it is observed.

LUTSELK'E CS
NORTHWEST TERRITORIES

62°24'56.030" N
110°41'25.070" W
178.90 m
220L002
71529
XLU

Download Data

Hourly Data (July 2017)
Hourly Data Report for July 11, 2017
Temp Definition
°C
Dew Point Temp Definition
°C
Rel Hum Definition
%
Wind Dir Definition
10's deg

Wind Spd Definition
km/h
Visibility Definition
km
Stn Press Definition
kPa
Hmdx Definition


Wind Chill Definition


Weather Definition


TIME
00:00 20.8 7.5 42 LegendMM LegendMM   99.11     LegendNANA
01:00 19.5 7.8 47 LegendMM LegendMM   99.13     LegendNANA
02:00 18.7 7.8 49 LegendMM LegendMM   99.16     LegendNANA
03:00 17.7 8.1 54 LegendMM LegendMM   99.20     LegendNANA
04:00 17.4 8.4 55 LegendMM LegendMM   99.20     LegendNANA
05:00 17.7 8.8 56 LegendMM LegendMM   99.23     LegendNANA
06:00 18.7 9.1 54 LegendMM LegendMM   99.26     LegendNANA
07:00 20.6 9.9 50 LegendMM LegendMM   99.27     LegendNANA
08:00 21.9 9.3 44 LegendMM LegendMM   99.27     LegendNANA
09:00 23.6 9.3 40 LegendMM LegendMM   99.26 25   LegendNANA
10:00 24.7 8.6 36 LegendMM LegendMM   99.25 25   LegendNANA
11:00 25.7 8.0 32 LegendMM LegendMM   99.23 26   LegendNANA
12:00 26.5 8.5 32 LegendMM LegendMM   99.20 27   LegendNANA
13:00 27.8 8.3 29 LegendMM LegendMM   99.19 28   LegendNANA
14:00 25.6 10.2 38 LegendMM LegendMM   99.21 27   LegendNANA
15:00 25.0 9.7 38 LegendMM LegendMM   99.21 26   LegendNANA
16:00 25.6 9.4 36 LegendMM LegendMM   99.18 27   LegendNANA
17:00 25.7 10.5 38 LegendMM LegendMM   99.15 27   LegendNANA
18:00 24.8 10.8 42 LegendMM LegendMM   99.11 26   LegendNANA
19:00 23.9 11.8 47 LegendMM LegendMM   99.12 26   LegendNANA
20:00 24.4 12.2 47 LegendMM LegendMM   99.11 27   LegendNANA
21:00 22.4 13.5 57 LegendMM LegendMM   99.13 25   LegendNANA
22:00 20.2 12.9 63 LegendMM LegendMM   99.15     LegendNANA
23:00 16.7 11.8 73 LegendMM LegendMM   99.14     LegendNANA

Notes on Data Quality.

Legend

  • E = Estimated
  • M = Missing
  • NA = Not Available
  • ‡ = Partner data that is not subject to review by the National Climate Archives
Date modified: